Time,TemperatureF,DewpointF,PressureIn,WindDirection,WindDirectionDegrees,WindSpeedMPH,WindSpeedGustMPH,Humidity,HourlyPrecipIn,Conditions,Clouds,dailyrainin,SoftwareType,DateUTC
2014-01-17 00:02:00,46.6,32.2,30.06,West,273,1.0,3.0,57,0.00,,---,0.00,VWS V14.01,2014-01-17 06:02:00,
2014-01-17 00:07:00,46.3,31.9,30.06,West,259,4.0,6.0,57,0.00,,---,0.00,VWS V14.01,2014-01-17 06:07:00,
2014-01-17 00:12:00,46.3,32.3,30.06,West,269,0.0,1.0,58,0.00,,---,0.00,VWS V14.01,2014-01-17 06:12:00,
2014-01-17 00:17:00,46.1,32.2,30.06,West,269,2.0,2.0,58,0.00,,---,0.00,VWS V14.01,2014-01-17 06:17:00,
2014-01-17 00:22:00,45.8,31.9,30.06,West,268,3.0,5.0,58,0.00,,---,0.00,VWS V14.01,2014-01-17 06:22:00,
2014-01-17 00:27:00,45.7,31.8,30.06,West,278,2.0,2.0,58,0.00,,---,0.00,VWS V14.01,2014-01-17 06:27:00,
2014-01-17 00:32:00,45.7,31.8,30.06,West,280,0.0,0.0,58,0.00,,---,0.00,VWS V14.01,2014-01-17 06:32:00,
2014-01-17 00:37:00,45.2,32.2,30.06,WNW,285,4.0,4.0,60,0.00,,---,0.00,VWS V14.01,2014-01-17 06:37:00,
2014-01-17 00:42:00,45.3,31.8,30.06,WNW,282,0.0,1.0,59,0.00,,---,0.00,VWS V14.01,2014-01-17 06:42:00,
2014-01-17 00:45:00,45.5,31.6,30.07,West,263,3.0,3.0,58,0.00,,---,0.00,VWS V14.01,2014-01-17 06:45:00,
2014-01-17 00:50:00,45.9,32.0,30.07,West,273,2.0,2.0,58,0.00,,---,0.00,VWS V14.01,2014-01-17 06:50:00,
2014-01-17 00:55:00,46.2,31.4,30.07,West,265,0.0,0.0,56,0.00,,---,0.00,VWS V14.01,2014-01-17 06:55:00,
2014-01-17 01:00:00,46.2,31.4,30.07,West,272,2.0,4.0,56,0.00,,---,0.00,VWS V14.01,2014-01-17 07:00:00,
2014-01-17 01:05:00,46.4,30.7,30.07,West,271,2.0,2.0,54,0.00,,---,0.00,VWS V14.01,2014-01-17 07:05:00,
2014-01-17 01:10:00,46.5,30.8,30.07,WNW,286,4.0,6.0,54,0.00,,---,0.00,VWS V14.01,2014-01-17 07:10:00,
2014-01-17 01:15:00,46.5,30.8,30.07,WNW,291,2.0,3.0,54,0.00,,---,0.00,VWS V14.01,2014-01-17 07:15:00,
2014-01-17 01:20:00,46.3,30.1,30.07,WNW,285,3.0,3.0,53,0.00,,---,0.00,VWS V14.01,2014-01-17 07:20:00,
2014-01-17 01:25:00,46.1,29.9,30.07,WNW,291,0.0,3.0,53,0.00,,---,0.00,VWS V14.01,2014-01-17 07:25:00,
2014-01-17 01:30:00,46.0,29.8,30.07,West,264,2.0,3.0,53,0.00,,---,0.00,VWS V14.01,2014-01-17 07:30:00,
2014-01-17 01:35:00,45.9,29.3,30.07,WNW,298,0.0,4.0,52,0.00,,---,0.00,VWS V14.01,2014-01-17 07:35:00,
2014-01-17 01:40:00,45.7,28.6,30.07,West,268,0.0,3.0,51,0.00,,---,0.00,VWS V14.01,2014-01-17 07:40:00,
2014-01-17 01:45:00,45.4,29.3,30.07,West,270,0.0,1.0,53,0.00,,---,0.00,VWS V14.01,2014-01-17 07:45:00,
2014-01-17 01:50:00,44.7,29.5,30.07,West,277,0.0,2.0,55,0.00,,---,0.00,VWS V14.01,2014-01-17 07:50:00,
2014-01-17 01:55:00,44.3,29.2,30.07,West,277,2.0,3.0,55,0.00,,---,0.00,VWS V14.01,2014-01-17 07:55:00,
2014-01-17 02:00:00,44.4,29.3,30.07,West,281,0.0,0.0,55,0.00,,---,0.00,VWS V14.01,2014-01-17 08:00:00,
2014-01-17 02:05:00,44.1,29.0,30.07,WNW,292,0.0,5.0,55,0.00,,---,0.00,VWS V14.01,2014-01-17 08:05:00,
2014-01-17 02:10:00,43.7,29.0,30.07,WNW,292,2.0,3.0,56,0.00,,---,0.00,VWS V14.01,2014-01-17 08:10:00,
2014-01-17 02:15:00,43.1,28.9,30.08,WNW,292,0.0,0.0,57,0.00,,---,0.00,VWS V14.01,2014-01-17 08:15:00,
2014-01-17 02:20:00,42.3,29.0,30.08,WNW,292,0.0,0.0,59,0.00,,---,0.00,VWS V14.01,2014-01-17 08:20:00,
2014-01-17 02:25:00,41.8,29.4,30.08,WNW,292,0.0,0.0,61,0.00,,---,0.00,VWS V14.01,2014-01-17 08:25:00,
2014-01-17 02:30:00,41.4,29.0,30.08,WNW,292,0.0,2.0,61,0.00,,---,0.00,VWS V14.01,2014-01-17 08:30:00,
2014-01-17 02:35:00,41.1,28.7,30.08,WNW,292,0.0,0.0,61,0.00,,---,0.00,VWS V14.01,2014-01-17 08:35:00,
2014-01-17 02:40:00,40.9,28.5,30.08,WNW,292,0.0,0.0,61,0.00,,---,0.00,VWS V14.01,2014-01-17 08:40:00,
2014-01-17 02:45:00,41.1,29.1,30.08,WNW,292,0.0,4.0,62,0.00,,---,0.00,VWS V14.01,2014-01-17 08:45:00,
2014-01-17 02:50:00,41.3,28.9,30.08,WNW,294,0.0,4.0,61,0.00,,---,0.00,VWS V14.01,2014-01-17 08:50:00,
2014-01-17 02:55:00,41.7,28.4,30.08,WNW,294,2.0,2.0,59,0.00,,---,0.00,VWS V14.01,2014-01-17 08:55:00,
2014-01-17 03:00:00,42.5,27.9,30.10,West,281,0.0,0.0,56,0.00,,---,0.00,VWS V14.01,2014-01-17 09:00:00,
2014-01-17 03:05:00,43.4,27.9,30.10,NW,311,5.0,6.0,54,0.00,,---,0.00,VWS V14.01,2014-01-17 09:05:00,
2014-01-17 03:10:00,44.3,28.3,30.10,NW,321,0.0,6.0,53,0.00,,---,0.00,VWS V14.01,2014-01-17 09:10:00,
2014-01-17 03:15:00,44.9,26.9,30.10,WNW,298,2.0,4.0,49,0.00,,---,0.00,VWS V14.01,2014-01-17 09:15:00,
2014-01-17 03:20:00,45.4,26.4,30.10,WNW,284,0.0,5.0,47,0.00,,---,0.00,VWS V14.01,2014-01-17 09:20:00,
2014-01-17 03:25:00,45.6,25.5,30.10,WNW,297,0.0,5.0,45,0.00,,---,0.00,VWS V14.01,2014-01-17 09:25:00,
2014-01-17 03:30:00,45.8,25.1,30.11,NW,320,0.0,4.0,44,0.00,,---,0.00,VWS V14.01,2014-01-17 09:30:00,
2014-01-17 03:35:00,46.0,25.3,30.11,NNW,333,0.0,2.0,44,0.00,,---,0.00,VWS V14.01,2014-01-17 09:35:00,
2014-01-17 03:40:00,46.1,24.9,30.11,NW,313,4.0,6.0,43,0.00,,---,0.00,VWS V14.01,2014-01-17 09:40:00,
2014-01-17 03:45:00,46.0,24.8,30.11,NW,306,4.0,4.0,43,0.00,,---,0.00,VWS V14.01,2014-01-17 09:45:00,
2014-01-17 03:50:00,46.0,24.8,30.11,NW,324,2.0,6.0,43,0.00,,---,0.00,VWS V14.01,2014-01-17 09:50:00,
2014-01-17 03:55:00,46.1,24.3,30.11,WNW,287,2.0,4.0,42,0.00,,---,0.00,VWS V14.01,2014-01-17 09:55:00,
2014-01-17 04:00:00,46.3,24.5,30.11,NW,319,9.0,11.0,42,0.00,,---,0.00,VWS V14.01,2014-01-17 10:00:00,
2014-01-17 04:05:00,46.4,24.6,30.11,NW,325,4.0,4.0,42,0.00,,---,0.00,VWS V14.01,2014-01-17 10:05:00,
2014-01-17 04:10:00,46.4,24.6,30.11,NW,320,2.0,2.0,42,0.00,,---,0.00,VWS V14.01,2014-01-17 10:10:00,
2014-01-17 04:15:00,46.3,23.9,30.11,WNW,296,0.0,0.0,41,0.00,,---,0.00,VWS V14.01,2014-01-17 10:15:00,
2014-01-17 04:20:00,46.3,23.9,30.11,NW,323,2.0,6.0,41,0.00,,---,0.00,VWS V14.01,2014-01-17 10:20:00,
2014-01-17 04:25:00,46.2,23.8,30.11,NW,311,5.0,6.0,41,0.00,,---,0.00,VWS V14.01,2014-01-17 10:25:00,
2014-01-17 04:30:00,46.1,24.3,30.12,West,274,0.0,2.0,42,0.00,,---,0.00,VWS V14.01,2014-01-17 10:30:00,
2014-01-17 04:35:00,46.1,23.7,30.12,NNW,327,1.0,6.0,41,0.00,,---,0.00,VWS V14.01,2014-01-17 10:35:00,
2014-01-17 04:40:00,46.1,23.7,30.12,NW,325,2.0,3.0,41,0.00,,---,0.00,VWS V14.01,2014-01-17 10:40:00,
2014-01-17 04:45:00,46.1,23.1,30.13,NNW,327,2.0,6.0,40,0.00,,---,0.00,VWS V14.01,2014-01-17 10:45:00,
2014-01-17 04:50:00,46.2,23.2,30.13,NW,323,0.0,2.0,40,0.00,,---,0.00,VWS V14.01,2014-01-17 10:50:00,
2014-01-17 04:55:00,46.2,23.2,30.13,NW,310,0.0,1.0,40,0.00,,---,0.00,VWS V14.01,2014-01-17 10:55:00,
2014-01-17 05:00:00,46.1,23.1,30.13,NNW,338,0.0,0.0,40,0.00,,---,0.00,VWS V14.01,2014-01-17 11:00:00,
2014-01-17 05:05:00,46.0,23.0,30.13,NNW,345,0.0,3.0,40,0.00,,---,0.00,VWS V14.01,2014-01-17 11:05:00,
2014-01-17 05:10:00,45.8,24.0,30.13,NW,321,5.0,5.0,42,0.00,,---,0.00,VWS V14.01,2014-01-17 11:10:00,
2014-01-17 05:15:00,45.8,24.0,30.14,NW,314,0.0,3.0,42,0.00,,---,0.00,VWS V14.01,2014-01-17 11:15:00,
2014-01-17 05:20:00,45.7,22.8,30.14,NNW,329,5.0,6.0,40,0.00,,---,0.00,VWS V14.01,2014-01-17 11:20:00,
2014-01-17 05:25:00,45.9,23.0,30.14,West,263,1.0,1.0,40,0.00,,---,0.00,VWS V14.01,2014-01-17 11:25:00,
2014-01-17 05:30:00,46.1,21.9,30.14,NW,325,9.0,9.0,38,0.00,,---,0.00,VWS V14.01,2014-01-17 11:30:00,
2014-01-17 05:35:00,46.2,22.0,30.14,WNW,303,9.0,9.0,38,0.00,,---,0.00,VWS V14.01,2014-01-17 11:35:00,
2014-01-17 05:40:00,46.4,22.2,30.14,NW,321,5.0,5.0,38,0.00,,---,0.00,VWS V14.01,2014-01-17 11:40:00,
2014-01-17 05:45:00,46.3,22.1,30.14,North,5,4.0,14.0,38,0.00,,---,0.00,VWS V14.01,2014-01-17 11:45:00,
2014-01-17 05:50:00,46.2,22.0,30.14,North,355,0.0,2.0,38,0.00,,---,0.00,VWS V14.01,2014-01-17 11:50:00,
2014-01-17 05:55:00,46.2,21.4,30.14,WNW,294,7.0,7.0,37,0.00,,---,0.00,VWS V14.01,2014-01-17 11:55:00,
2014-01-17 06:00:00,46.2,20.7,30.14,NNW,329,3.0,7.0,36,0.00,,---,0.00,VWS V14.01,2014-01-17 12:00:00,
2014-01-17 06:05:00,46.3,20.2,30.14,WNW,294,5.0,7.0,35,0.00,,---,0.00,VWS V14.01,2014-01-17 12:05:00,
2014-01-17 06:10:00,46.3,20.8,30.14,WNW,303,6.0,10.0,36,0.00,,---,0.00,VWS V14.01,2014-01-17 12:10:00,
2014-01-17 06:15:00,46.2,20.1,30.14,WNW,296,5.0,5.0,35,0.00,,---,0.00,VWS V14.01,2014-01-17 12:15:00,
2014-01-17 06:20:00,46.1,20.6,30.14,WNW,299,0.0,2.0,36,0.00,,---,0.00,VWS V14.01,2014-01-17 12:20:00,
2014-01-17 06:25:00,45.8,20.4,30.14,WNW,293,6.0,9.0,36,0.00,,---,0.00,VWS V14.01,2014-01-17 12:25:00,
2014-01-17 06:30:00,45.7,19.6,30.15,NW,323,0.0,4.0,35,0.00,,---,0.00,VWS V14.01,2014-01-17 12:30:00,
2014-01-17 06:35:00,45.5,20.1,30.15,NNW,338,2.0,4.0,36,0.00,,---,0.00,VWS V14.01,2014-01-17 12:35:00,
2014-01-17 06:40:00,45.3,19.3,30.15,WNW,299,4.0,6.0,35,0.00,,---,0.00,VWS V14.01,2014-01-17 12:40:00,
2014-01-17 06:45:00,45.2,19.2,30.15,WNW,295,3.0,4.0,35,0.00,,---,0.00,VWS V14.01,2014-01-17 12:45:00,
2014-01-17 06:50:00,45.1,19.1,30.15,NW,306,6.0,7.0,35,0.00,,---,0.00,VWS V14.01,2014-01-17 12:50:00,
2014-01-17 06:55:00,45.2,19.2,30.15,NW,314,4.0,6.0,35,0.00,,---,0.00,VWS V14.01,2014-01-17 12:55:00,
2014-01-17 07:00:00,45.1,19.1,30.16,NNW,329,2.0,2.0,35,0.00,,---,0.00,VWS V14.01,2014-01-17 13:00:00,
2014-01-17 07:05:00,45.1,19.1,30.16,NNW,329,6.0,11.0,35,0.00,,---,0.00,VWS V14.01,2014-01-17 13:05:00,
2014-01-17 07:10:00,44.9,18.9,30.16,NW,324,0.0,2.0,35,0.00,,---,0.00,VWS V14.01,2014-01-17 13:10:00,
2014-01-17 07:15:00,44.8,19.5,30.16,NW,320,3.0,4.0,36,0.00,,---,0.00,VWS V14.01,2014-01-17 13:15:00,
2014-01-17 07:20:00,44.7,19.4,30.16,NNW,342,4.0,5.0,36,0.00,,---,0.00,VWS V14.01,2014-01-17 13:20:00,
2014-01-17 07:25:00,44.6,19.3,30.16,NNW,331,0.0,1.0,36,0.00,,---,0.00,VWS V14.01,2014-01-17 13:25:00,
2014-01-17 07:30:00,44.5,18.6,30.17,NNW,327,2.0,6.0,35,0.00,,---,0.00,VWS V14.01,2014-01-17 13:30:00,
2014-01-17 07:35:00,44.6,18.0,30.17,NNW,330,9.0,15.0,34,0.00,,---,0.00,VWS V14.01,2014-01-17 13:35:00,
2014-01-17 07:40:00,44.8,17.5,30.17,NNW,329,8.0,16.0,33,0.00,,---,0.00,VWS V14.01,2014-01-17 13:40:00,
2014-01-17 07:45:00,44.9,16.8,30.17,NW,312,4.0,9.0,32,0.00,,---,0.00,VWS V14.01,2014-01-17 13:45:00,
2014-01-17 07:50:00,44.9,17.6,30.17,NW,317,5.0,5.0,33,0.00,,---,0.00,VWS V14.01,2014-01-17 13:50:00,
2014-01-17 07:55:00,44.7,17.4,30.17,NW,323,6.0,9.0,33,0.00,,---,0.00,VWS V14.01,2014-01-17 13:55:00,
2014-01-17 08:00:00,44.5,17.2,30.18,NW,309,7.0,10.0,33,0.00,,---,0.00,VWS V14.01,2014-01-17 14:00:00,
2014-01-17 08:05:00,44.2,16.9,30.18,North,351,5.0,5.0,33,0.00,,---,0.00,VWS V14.01,2014-01-17 14:05:00,
2014-01-17 08:10:00,44.1,17.5,30.18,NW,314,10.0,10.0,34,0.00,,---,0.00,VWS V14.01,2014-01-17 14:10:00,
2014-01-17 08:15:00,44.0,18.1,30.20,North,360,6.0,10.0,35,0.00,,---,0.00,VWS V14.01,2014-01-17 14:15:00,
2014-01-17 08:19:00,43.8,18.0,30.20,North,355,6.0,6.0,35,0.00,,---,0.00,VWS V14.01,2014-01-17 14:19:00,
2014-01-17 08:24:00,43.6,17.8,30.20,NW,315,6.0,9.0,35,0.00,,---,0.00,VWS V14.01,2014-01-17 14:24:00,
2014-01-17 08:29:00,43.4,17.6,30.20,NNW,346,0.0,3.0,35,0.00,,---,0.00,VWS V14.01,2014-01-17 14:29:00,
2014-01-17 08:34:00,43.2,17.4,30.20,NW,316,10.0,10.0,35,0.00,,---,0.00,VWS V14.01,2014-01-17 14:34:00,
2014-01-17 08:39:00,43.1,16.7,30.20,NW,311,6.0,10.0,34,0.00,,---,0.00,VWS V14.01,2014-01-17 14:39:00,
2014-01-17 08:44:00,43.5,16.3,30.21,NW,316,15.0,16.0,33,0.00,,---,0.00,VWS V14.01,2014-01-17 14:44:00,
2014-01-17 08:49:00,44.2,16.9,30.21,West,275,10.0,16.0,33,0.00,,---,0.00,VWS V14.01,2014-01-17 14:49:00,
2014-01-17 08:54:00,44.6,15.9,30.21,NW,313,15.0,15.0,31,0.00,,---,0.00,VWS V14.01,2014-01-17 14:54:00,
2014-01-17 08:59:00,44.7,15.9,30.22,NNW,331,12.0,13.0,31,0.00,,---,0.00,VWS V14.01,2014-01-17 14:59:00,
2014-01-17 09:04:00,44.7,15.9,30.22,NW,313,13.0,13.0,31,0.00,,---,0.00,VWS V14.01,2014-01-17 15:04:00,
2014-01-17 09:09:00,45.0,16.9,30.22,WNW,300,4.0,6.0,32,0.00,,---,0.00,VWS V14.01,2014-01-17 15:09:00,
2014-01-17 09:14:00,45.8,16.9,30.23,NW,304,7.0,9.0,31,0.00,,---,0.00,VWS V14.01,2014-01-17 15:14:00,
2014-01-17 09:19:00,45.8,16.1,30.23,NNW,328,12.0,13.0,30,0.00,,---,0.00,VWS V14.01,2014-01-17 15:19:00,
2014-01-17 09:24:00,45.8,15.4,30.23,West,265,5.0,5.0,29,0.00,,---,0.00,VWS V14.01,2014-01-17 15:24:00,
2014-01-17 09:29:00,45.6,15.2,30.24,NNW,336,2.0,5.0,29,0.00,,---,0.00,VWS V14.01,2014-01-17 15:29:00,
2014-01-17 09:34:00,45.2,14.9,30.24,NW,311,5.0,11.0,29,0.00,,---,0.00,VWS V14.01,2014-01-17 15:34:00,
2014-01-17 09:39:00,45.7,14.5,30.24,NW,306,6.0,6.0,28,0.00,,---,0.00,VWS V14.01,2014-01-17 15:39:00,
2014-01-17 09:44:00,46.6,15.3,30.24,WNW,301,6.0,7.0,28,0.00,,---,0.00,VWS V14.01,2014-01-17 15:44:00,
2014-01-17 09:49:00,46.5,11.7,30.24,NW,320,7.0,15.0,24,0.00,,---,0.00,VWS V14.01,2014-01-17 15:49:00,
2014-01-17 09:54:00,46.5,12.6,30.24,NNW,346,3.0,4.0,25,0.00,,---,0.00,VWS V14.01,2014-01-17 15:54:00,
2014-01-17 09:59:00,46.7,12.8,30.24,NW,311,3.0,4.0,25,0.00,,---,0.00,VWS V14.01,2014-01-17 15:59:00,
2014-01-17 10:04:00,47.2,13.2,30.24,North,355,14.0,22.0,25,0.00,,---,0.00,VWS V14.01,2014-01-17 16:04:00,
2014-01-17 10:09:00,46.9,12.0,30.24,North,5,5.0,6.0,24,0.00,,---,0.00,VWS V14.01,2014-01-17 16:09:00,
2014-01-17 10:14:00,47.1,12.2,30.25,NNW,348,7.0,7.0,24,0.00,,---,0.00,VWS V14.01,2014-01-17 16:14:00,
2014-01-17 10:19:00,47.6,12.6,30.25,WNW,302,6.0,7.0,24,0.00,,---,0.00,VWS V14.01,2014-01-17 16:19:00,
2014-01-17 10:24:00,47.4,11.5,30.25,NNW,331,5.0,11.0,23,0.00,,---,0.00,VWS V14.01,2014-01-17 16:24:00,
2014-01-17 10:29:00,47.4,11.5,30.24,WNW,297,13.0,13.0,23,0.00,,---,0.00,VWS V14.01,2014-01-17 16:29:00,
2014-01-17 10:34:00,48.3,13.2,30.24,WNW,299,1.0,3.0,24,0.00,,---,0.00,VWS V14.01,2014-01-17 16:34:00,
2014-01-17 10:39:00,48.3,12.2,30.24,NW,315,6.0,11.0,23,0.00,,---,0.00,VWS V14.01,2014-01-17 16:39:00,
2014-01-17 10:44:00,48.2,11.1,30.24,WNW,290,14.0,14.0,22,0.00,,---,0.00,VWS V14.01,2014-01-17 16:44:00,
2014-01-17 10:49:00,48.2,10.1,30.24,WNW,301,16.0,16.0,21,0.00,,---,0.00,VWS V14.01,2014-01-17 16:49:00,
2014-01-17 10:54:00,48.1,12.1,30.24,West,259,5.0,7.0,23,0.00,,---,0.00,VWS V14.01,2014-01-17 16:54:00,
2014-01-17 10:59:00,48.8,11.7,30.24,NW,319,10.0,14.0,22,0.00,,---,0.00,VWS V14.01,2014-01-17 16:59:00,
2014-01-17 11:04:00,48.7,11.6,30.24,West,275,11.0,11.0,22,0.00,,---,0.00,VWS V14.01,2014-01-17 17:04:00,
2014-01-17 11:09:00,49.0,11.8,30.24,ENE,59,7.0,16.0,22,0.00,,---,0.00,VWS V14.01,2014-01-17 17:09:00,
2014-01-17 11:14:00,49.0,10.8,30.24,WNW,294,1.0,12.0,21,0.00,,---,0.00,VWS V14.01,2014-01-17 17:14:00,
2014-01-17 11:19:00,49.0,11.8,30.23,NNW,333,5.0,7.0,22,0.00,,---,0.00,VWS V14.01,2014-01-17 17:19:00,
2014-01-17 11:24:00,49.2,10.9,30.23,NW,319,2.0,7.0,21,0.00,,---,0.00,VWS V14.01,2014-01-17 17:24:00,
2014-01-17 11:29:00,49.6,11.3,30.23,NNW,329,13.0,13.0,21,0.00,,---,0.00,VWS V14.01,2014-01-17 17:29:00,
2014-01-17 11:34:00,50.1,12.8,30.22,WNW,292,3.0,6.0,22,0.00,,---,0.00,VWS V14.01,2014-01-17 17:34:00,
2014-01-17 11:39:00,49.7,9.1,30.22,West,277,9.0,16.0,19,0.00,,---,0.00,VWS V14.01,2014-01-17 17:39:00,
2014-01-17 11:44:00,49.4,10.0,30.22,NNW,336,5.0,13.0,20,0.00,,---,0.00,VWS V14.01,2014-01-17 17:44:00,
2014-01-17 11:49:00,49.5,7.8,30.22,NNW,340,3.0,13.0,18,0.00,,---,0.00,VWS V14.01,2014-01-17 17:49:00,
2014-01-17 11:54:00,49.9,9.3,30.22,NW,304,6.0,15.0,19,0.00,,---,0.00,VWS V14.01,2014-01-17 17:54:00,
2014-01-17 11:59:00,49.7,9.1,30.22,NNW,345,12.0,12.0,19,0.00,,---,0.00,VWS V14.01,2014-01-17 17:59:00,
2014-01-17 12:04:00,50.1,10.6,30.22,NW,311,3.0,11.0,20,0.00,,---,0.00,VWS V14.01,2014-01-17 18:04:00,
2014-01-17 12:09:00,50.5,9.8,30.22,WNW,294,5.0,12.0,19,0.00,,---,0.00,VWS V14.01,2014-01-17 18:09:00,
2014-01-17 12:14:00,50.3,8.4,30.22,West,267,3.0,9.0,18,0.00,,---,0.00,VWS V14.01,2014-01-17 18:14:00,
2014-01-17 12:19:00,50.2,11.8,30.21,NW,311,3.0,10.0,21,0.00,,---,0.00,VWS V14.01,2014-01-17 18:19:00,
2014-01-17 12:24:00,50.5,10.9,30.21,West,263,7.0,18.0,20,0.00,,---,0.00,VWS V14.01,2014-01-17 18:24:00,
2014-01-17 12:29:00,50.3,10.8,30.21,WNW,286,5.0,13.0,20,0.00,,---,0.00,VWS V14.01,2014-01-17 18:29:00,
2014-01-17 12:34:00,50.7,11.1,30.20,WNW,300,11.0,11.0,20,0.00,,---,0.00,VWS V14.01,2014-01-17 18:34:00,
2014-01-17 12:39:00,50.0,9.4,30.20,NW,316,4.0,13.0,19,0.00,,---,0.00,VWS V14.01,2014-01-17 18:39:00,
2014-01-17 12:44:00,50.1,7.0,30.20,NNW,336,5.0,12.0,17,0.00,,---,0.00,VWS V14.01,2014-01-17 18:44:00,
2014-01-17 12:49:00,51.0,7.7,30.20,NNE,16,6.0,9.0,17,0.00,,---,0.00,VWS V14.01,2014-01-17 18:49:00,
2014-01-17 12:54:00,50.5,7.3,30.20,West,273,10.0,11.0,17,0.00,,---,0.00,VWS V14.01,2014-01-17 18:54:00,
2014-01-17 12:59:00,50.0,6.9,30.20,West,261,5.0,13.0,17,0.00,,---,0.00,VWS V14.01,2014-01-17 18:59:00,
2014-01-17 13:04:00,50.6,8.7,30.20,NNW,340,13.0,15.0,18,0.00,,---,0.00,VWS V14.01,2014-01-17 19:04:00,
2014-01-17 13:09:00,50.3,7.2,30.20,WSW,242,5.0,15.0,17,0.00,,---,0.00,VWS V14.01,2014-01-17 19:09:00,
2014-01-17 13:14:00,50.5,8.6,30.20,WNW,296,11.0,12.0,18,0.00,,---,0.00,VWS V14.01,2014-01-17 19:14:00,
2014-01-17 13:19:00,50.7,8.8,30.19,West,266,19.0,19.0,18,0.00,,---,0.00,VWS V14.01,2014-01-17 19:19:00,
2014-01-17 13:24:00,50.8,8.8,30.19,NW,323,12.0,15.0,18,0.00,,---,0.00,VWS V14.01,2014-01-17 19:24:00,
2014-01-17 13:29:00,51.2,9.2,30.19,NW,315,9.0,10.0,18,0.00,,---,0.00,VWS V14.01,2014-01-17 19:29:00,
2014-01-17 13:34:00,51.7,9.6,30.19,West,274,3.0,10.0,18,0.00,,---,0.00,VWS V14.01,2014-01-17 19:34:00,
2014-01-17 13:39:00,52.2,8.7,30.19,NW,305,10.0,14.0,17,0.00,,---,0.00,VWS V14.01,2014-01-17 19:39:00,
2014-01-17 13:44:00,52.0,8.6,30.19,NNW,347,9.0,9.0,17,0.00,,---,0.00,VWS V14.01,2014-01-17 19:44:00,
2014-01-17 13:49:00,51.9,8.5,30.19,NW,321,4.0,7.0,17,0.00,,---,0.00,VWS V14.01,2014-01-17 19:49:00,
2014-01-17 13:54:00,52.2,10.0,30.19,North,355,11.0,14.0,18,0.00,,---,0.00,VWS V14.01,2014-01-17 19:54:00,
2014-01-17 13:59:00,52.4,8.9,30.19,NNW,331,12.0,13.0,17,0.00,,---,0.00,VWS V14.01,2014-01-17 19:59:00,
2014-01-17 14:04:00,52.9,10.6,30.19,West,278,5.0,6.0,18,0.00,,---,0.00,VWS V14.01,2014-01-17 20:04:00,
2014-01-17 14:09:00,52.7,9.1,30.19,NNW,327,3.0,19.0,17,0.00,,---,0.00,VWS V14.01,2014-01-17 20:09:00,
2014-01-17 14:14:00,52.2,10.0,30.19,NNW,339,5.0,6.0,18,0.00,,---,0.00,VWS V14.01,2014-01-17 20:14:00,
2014-01-17 14:19:00,52.2,10.0,30.19,NNW,333,2.0,6.0,18,0.00,,---,0.00,VWS V14.01,2014-01-17 20:19:00,
2014-01-17 14:24:00,52.7,9.1,30.19,South,174,5.0,12.0,17,0.00,,---,0.00,VWS V14.01,2014-01-17 20:24:00,
2014-01-17 14:29:00,52.9,7.9,30.19,WNW,285,10.0,16.0,16,0.00,,---,0.00,VWS V14.01,2014-01-17 20:29:00,
2014-01-17 14:34:00,52.6,7.7,30.19,West,267,6.0,14.0,16,0.00,,---,0.00,VWS V14.01,2014-01-17 20:34:00,
2014-01-17 14:39:00,52.6,7.7,30.19,NW,325,9.0,11.0,16,0.00,,---,0.00,VWS V14.01,2014-01-17 20:39:00,
2014-01-17 14:44:00,52.7,7.8,30.19,WSW,254,6.0,14.0,16,0.00,,---,0.00,VWS V14.01,2014-01-17 20:44:00,
2014-01-17 14:49:00,52.5,7.6,30.19,West,264,7.0,8.0,16,0.00,,---,0.00,VWS V14.01,2014-01-17 20:49:00,
2014-01-17 14:54:00,52.2,7.4,30.19,North,355,6.0,15.0,16,0.00,,---,0.00,VWS V14.01,2014-01-17 20:54:00,
2014-01-17 14:59:00,52.2,8.7,30.19,NW,316,4.0,10.0,17,0.00,,---,0.00,VWS V14.01,2014-01-17 20:59:00,
2014-01-17 15:04:00,52.1,8.6,30.19,WNW,290,6.0,12.0,17,0.00,,---,0.00,VWS V14.01,2014-01-17 21:04:00,
2014-01-17 15:09:00,52.3,7.5,30.19,WNW,294,15.0,15.0,16,0.00,,---,0.00,VWS V14.01,2014-01-17 21:09:00,
2014-01-17 15:14:00,51.7,7.0,30.19,NNW,340,11.0,13.0,16,0.00,,---,0.00,VWS V14.01,2014-01-17 21:14:00,
2014-01-17 15:19:00,51.8,8.4,30.19,WNW,291,4.0,14.0,17,0.00,,---,0.00,VWS V14.01,2014-01-17 21:19:00,
2014-01-17 15:24:00,51.6,6.9,30.19,NNW,331,0.0,10.0,16,0.00,,---,0.00,VWS V14.01,2014-01-17 21:24:00,
2014-01-17 15:29:00,51.3,6.7,30.19,NW,320,4.0,16.0,16,0.00,,---,0.00,VWS V14.01,2014-01-17 21:29:00,
2014-01-17 15:34:00,51.3,8.0,30.19,North,355,3.0,14.0,17,0.00,,---,0.00,VWS V14.01,2014-01-17 21:34:00,
2014-01-17 15:39:00,51.1,7.8,30.19,NNW,348,0.0,8.0,17,0.00,,---,0.00,VWS V14.01,2014-01-17 21:39:00,
2014-01-17 15:44:00,51.1,7.8,30.19,WSW,257,13.0,17.0,17,0.00,,---,0.00,VWS V14.01,2014-01-17 21:44:00,
2014-01-17 15:49:00,50.9,7.7,30.20,NNW,339,11.0,13.0,17,0.00,,---,0.00,VWS V14.01,2014-01-17 21:49:00,
2014-01-17 15:54:00,50.8,8.8,30.20,NNW,334,2.0,10.0,18,0.00,,---,0.00,VWS V14.01,2014-01-17 21:54:00,
2014-01-17 15:59:00,50.7,8.8,30.20,WNW,292,3.0,9.0,18,0.00,,---,0.00,VWS V14.01,2014-01-17 21:59:00,
2014-01-17 16:04:00,50.3,8.4,30.20,WNW,288,5.0,13.0,18,0.00,,---,0.00,VWS V14.01,2014-01-17 22:04:00,
2014-01-17 16:09:00,49.9,8.1,30.20,WNW,297,3.0,9.0,18,0.00,,---,0.00,VWS V14.01,2014-01-17 22:09:00,
2014-01-17 16:14:00,50.1,9.5,30.20,WNW,294,1.0,4.0,19,0.00,,---,0.00,VWS V14.01,2014-01-17 22:14:00,
2014-01-17 16:19:00,50.0,9.4,30.20,WSW,247,11.0,12.0,19,0.00,,---,0.00,VWS V14.01,2014-01-17 22:19:00,
2014-01-17 16:24:00,49.5,9.0,30.20,West,279,7.0,15.0,19,0.00,,---,0.00,VWS V14.01,2014-01-17 22:24:00,
2014-01-17 16:29:00,49.2,8.7,30.20,NNW,335,5.0,15.0,19,0.00,,---,0.00,VWS V14.01,2014-01-17 22:29:00,
2014-01-17 16:34:00,48.9,9.6,30.21,WNW,295,5.0,5.0,20,0.00,,---,0.00,VWS V14.01,2014-01-17 22:34:00,
2014-01-17 16:39:00,48.6,9.4,30.21,NNW,344,5.0,11.0,20,0.00,,---,0.00,VWS V14.01,2014-01-17 22:39:00,
2014-01-17 16:44:00,48.3,9.1,30.21,WNW,295,4.0,4.0,20,0.00,,---,0.00,VWS V14.01,2014-01-17 22:44:00,
2014-01-17 16:49:00,48.1,10.0,30.22,North,350,6.0,6.0,21,0.00,,---,0.00,VWS V14.01,2014-01-17 22:49:00,
2014-01-17 16:54:00,47.9,9.9,30.22,NNW,338,5.0,14.0,21,0.00,,---,0.00,VWS V14.01,2014-01-17 22:54:00,
2014-01-17 16:59:00,47.7,9.7,30.22,NW,308,3.0,7.0,21,0.00,,---,0.00,VWS V14.01,2014-01-17 22:59:00,
2014-01-17 17:04:00,47.5,10.6,30.22,WNW,302,4.0,5.0,22,0.00,,---,0.00,VWS V14.01,2014-01-17 23:04:00,
2014-01-17 17:09:00,47.2,10.3,30.22,NNW,333,10.0,12.0,22,0.00,,---,0.00,VWS V14.01,2014-01-17 23:09:00,
2014-01-17 17:14:00,46.9,10.1,30.22,NW,310,4.0,8.0,22,0.00,,---,0.00,VWS V14.01,2014-01-17 23:14:00,
2014-01-17 17:19:00,46.7,10.9,30.22,NW,315,2.0,2.0,23,0.00,,---,0.00,VWS V14.01,2014-01-17 23:19:00,
2014-01-17 17:24:00,46.3,11.5,30.22,NW,318,4.0,5.0,24,0.00,,---,0.00,VWS V14.01,2014-01-17 23:24:00,
2014-01-17 17:29:00,46.1,11.3,30.22,NNW,327,0.0,4.0,24,0.00,,---,0.00,VWS V14.01,2014-01-17 23:29:00,
2014-01-17 17:34:00,45.8,12.0,30.22,WNW,292,4.0,4.0,25,0.00,,---,0.00,VWS V14.01,2014-01-17 23:34:00,
2014-01-17 17:39:00,45.5,11.7,30.22,NW,309,0.0,3.0,25,0.00,,---,0.00,VWS V14.01,2014-01-17 23:39:00,
2014-01-17 17:44:00,45.1,12.3,30.22,WNW,300,0.0,0.0,26,0.00,,---,0.00,VWS V14.01,2014-01-17 23:44:00,
2014-01-17 17:49:00,44.7,12.8,30.22,North,360,0.0,6.0,27,0.00,,---,0.00,VWS V14.01,2014-01-17 23:49:00,
2014-01-17 17:54:00,44.3,14.8,30.22,NNW,338,0.0,0.0,30,0.00,,---,0.00,VWS V14.01,2014-01-17 23:54:00,
2014-01-17 17:59:00,43.8,14.4,30.22,NNW,337,1.0,1.0,30,0.00,,---,0.00,VWS V14.01,2014-01-17 23:59:00,
2014-01-17 18:04:00,43.4,14.8,30.23,NW,317,0.0,2.0,31,0.00,,---,0.00,VWS V14.01,2014-01-18 00:04:00,
2014-01-17 18:09:00,42.7,14.9,30.23,NW,317,0.0,0.0,32,0.00,,---,0.00,VWS V14.01,2014-01-18 00:09:00,
2014-01-17 18:14:00,42.1,15.8,30.23,NW,316,0.0,0.0,34,0.00,,---,0.00,VWS V14.01,2014-01-18 00:14:00,
2014-01-17 18:19:00,41.6,16.0,30.24,NW,316,0.0,0.0,35,0.00,,---,0.00,VWS V14.01,2014-01-18 00:19:00,
2014-01-17 18:24:00,41.1,17.4,30.24,NW,317,0.0,0.0,38,0.00,,---,0.00,VWS V14.01,2014-01-18 00:24:00,
2014-01-17 18:29:00,40.5,16.3,30.24,NW,316,0.0,0.0,37,0.00,,---,0.00,VWS V14.01,2014-01-18 00:29:00,
2014-01-17 18:34:00,40.0,15.9,30.24,NW,317,0.0,0.0,37,0.00,,---,0.00,VWS V14.01,2014-01-18 00:34:00,
2014-01-17 18:39:00,40.3,14.8,30.24,NW,322,0.0,1.0,35,0.00,,---,0.00,VWS V14.01,2014-01-18 00:39:00,
2014-01-17 18:44:00,40.6,15.1,30.24,WNW,301,2.0,4.0,35,0.00,,---,0.00,VWS V14.01,2014-01-18 00:44:00,
2014-01-17 18:49:00,40.7,15.2,30.24,West,281,2.0,4.0,35,0.00,,---,0.00,VWS V14.01,2014-01-18 00:49:00,
2014-01-17 18:54:00,40.7,15.2,30.24,WNW,300,2.0,2.0,35,0.00,,---,0.00,VWS V14.01,2014-01-18 00:54:00,
2014-01-17 18:59:00,40.6,15.8,30.24,WNW,303,1.0,2.0,36,0.00,,---,0.00,VWS V14.01,2014-01-18 00:59:00,
2014-01-17 19:04:00,40.4,16.8,30.24,NW,307,1.0,1.0,38,0.00,,---,0.00,VWS V14.01,2014-01-18 01:04:00,
2014-01-17 19:09:00,40.0,17.1,30.24,NW,306,0.0,0.0,39,0.00,,---,0.00,VWS V14.01,2014-01-18 01:09:00,
2014-01-17 19:14:00,39.7,17.4,30.24,NW,305,3.0,3.0,40,0.00,,---,0.00,VWS V14.01,2014-01-18 01:14:00,
2014-01-17 19:19:00,39.7,18.0,30.24,NW,304,0.0,1.0,41,0.00,,---,0.00,VWS V14.01,2014-01-18 01:19:00,
2014-01-17 19:24:00,39.1,17.4,30.24,NW,305,0.0,1.0,41,0.00,,---,0.00,VWS V14.01,2014-01-18 01:24:00,
2014-01-17 19:29:00,38.9,18.3,30.24,NW,304,0.0,0.0,43,0.00,,---,0.00,VWS V14.01,2014-01-18 01:29:00,
2014-01-17 19:34:00,38.6,17.5,30.24,NW,304,0.0,0.0,42,0.00,,---,0.00,VWS V14.01,2014-01-18 01:34:00,
2014-01-17 19:39:00,38.2,17.7,30.24,NW,304,1.0,1.0,43,0.00,,---,0.00,VWS V14.01,2014-01-18 01:39:00,
2014-01-17 19:44:00,37.9,18.0,30.24,NW,304,0.0,0.0,44,0.00,,---,0.00,VWS V14.01,2014-01-18 01:44:00,
2014-01-17 19:49:00,37.5,18.1,30.24,NW,304,0.0,0.0,45,0.00,,---,0.00,VWS V14.01,2014-01-18 01:49:00,
2014-01-17 19:54:00,37.2,18.3,30.24,NW,304,0.0,0.0,46,0.00,,---,0.00,VWS V14.01,2014-01-18 01:54:00,
2014-01-17 19:59:00,36.8,19.0,30.24,NW,304,0.0,1.0,48,0.00,,---,0.00,VWS V14.01,2014-01-18 01:59:00,
2014-01-17 20:04:00,36.6,19.3,30.24,NW,304,0.0,1.0,49,0.00,,---,0.00,VWS V14.01,2014-01-18 02:04:00,
2014-01-17 20:09:00,36.4,19.1,30.24,NW,304,0.0,0.0,49,0.00,,---,0.00,VWS V14.01,2014-01-18 02:09:00,
2014-01-17 20:14:00,36.3,18.5,30.24,NW,304,0.0,0.0,48,0.00,,---,0.00,VWS V14.01,2014-01-18 02:14:00,
2014-01-17 20:19:00,36.2,19.4,30.25,NW,304,0.0,0.0,50,0.00,,---,0.00,VWS V14.01,2014-01-18 02:19:00,
2014-01-17 20:24:00,35.9,19.5,30.25,NW,304,0.0,0.0,51,0.00,,---,0.00,VWS V14.01,2014-01-18 02:24:00,
2014-01-17 20:29:00,35.4,19.1,30.25,NW,304,0.0,0.0,51,0.00,,---,0.00,VWS V14.01,2014-01-18 02:29:00,
2014-01-17 20:34:00,35.1,19.3,30.25,NW,304,0.0,0.0,52,0.00,,---,0.00,VWS V14.01,2014-01-18 02:34:00,
2014-01-17 20:39:00,34.9,18.6,30.25,NW,304,0.0,0.0,51,0.00,,---,0.00,VWS V14.01,2014-01-18 02:39:00,
2014-01-17 20:44:00,34.9,18.2,30.25,NW,304,0.0,0.0,50,0.00,,---,0.00,VWS V14.01,2014-01-18 02:44:00,
2014-01-17 20:49:00,34.7,19.3,30.25,NW,304,0.0,0.0,53,0.00,,---,0.00,VWS V14.01,2014-01-18 02:49:00,
2014-01-17 20:54:00,34.5,19.1,30.25,NW,304,0.0,0.0,53,0.00,,---,0.00,VWS V14.01,2014-01-18 02:54:00,
2014-01-17 20:59:00,34.3,19.0,30.25,NW,304,0.0,0.0,53,0.00,,---,0.00,VWS V14.01,2014-01-18 02:59:00,
2014-01-17 21:04:00,34.0,19.5,30.25,NW,304,0.0,0.0,55,0.00,,---,0.00,VWS V14.01,2014-01-18 03:04:00,
2014-01-17 21:09:00,33.9,19.0,30.25,NW,304,0.0,0.0,54,0.00,,---,0.00,VWS V14.01,2014-01-18 03:09:00,
2014-01-17 21:14:00,33.7,19.3,30.25,NW,304,0.0,0.0,55,0.00,,---,0.00,VWS V14.01,2014-01-18 03:14:00,
2014-01-17 21:19:00,33.2,18.8,30.25,NW,304,0.0,0.0,55,0.00,,---,0.00,VWS V14.01,2014-01-18 03:19:00,
2014-01-17 21:24:00,33.0,19.0,30.25,NW,304,0.0,0.0,56,0.00,,---,0.00,VWS V14.01,2014-01-18 03:24:00,
2014-01-17 21:29:00,33.2,18.8,30.25,NW,304,0.0,0.0,55,0.00,,---,0.00,VWS V14.01,2014-01-18 03:29:00,
2014-01-17 21:34:00,33.0,19.4,30.25,NW,304,0.0,0.0,57,0.00,,---,0.00,VWS V14.01,2014-01-18 03:34:00,
2014-01-17 21:39:00,33.0,19.9,30.25,NW,304,0.0,0.0,58,0.00,,---,0.00,VWS V14.01,2014-01-18 03:39:00,
2014-01-17 21:44:00,32.7,19.6,30.25,NW,304,0.0,0.0,58,0.00,,---,0.00,VWS V14.01,2014-01-18 03:44:00,
2014-01-17 21:49:00,32.5,19.0,30.25,NW,304,0.0,0.0,57,0.00,,---,0.00,VWS V14.01,2014-01-18 03:49:00,
2014-01-17 21:54:00,32.4,19.3,30.25,NW,304,0.0,0.0,58,0.00,,---,0.00,VWS V14.01,2014-01-18 03:54:00,
2014-01-17 21:59:00,32.2,19.9,30.25,NW,304,0.0,0.0,60,0.00,,---,0.00,VWS V14.01,2014-01-18 03:59:00,
2014-01-17 22:04:00,32.0,19.3,30.25,NW,304,0.0,0.0,59,0.00,,---,0.00,VWS V14.01,2014-01-18 04:04:00,
2014-01-17 22:09:00,31.9,19.2,30.25,NW,304,0.0,0.0,59,0.00,,---,0.00,VWS V14.01,2014-01-18 04:09:00,
2014-01-17 22:14:00,31.8,18.7,30.25,NW,304,0.0,0.0,58,0.00,,---,0.00,VWS V14.01,2014-01-18 04:14:00,
2014-01-17 22:19:00,31.7,19.4,30.25,NW,304,0.0,0.0,60,0.00,,---,0.00,VWS V14.01,2014-01-18 04:19:00,
2014-01-17 22:24:00,31.5,19.2,30.25,NW,304,0.0,0.0,60,0.00,,---,0.00,VWS V14.01,2014-01-18 04:24:00,
2014-01-17 22:29:00,31.3,19.0,30.25,NW,304,0.0,0.0,60,0.00,,---,0.00,VWS V14.01,2014-01-18 04:29:00,
2014-01-17 22:34:00,31.4,19.1,30.25,NW,304,0.0,0.0,60,0.00,,---,0.00,VWS V14.01,2014-01-18 04:34:00,
2014-01-17 22:39:00,31.3,19.4,30.25,NW,304,0.0,0.0,61,0.00,,---,0.00,VWS V14.01,2014-01-18 04:39:00,
2014-01-17 22:44:00,31.1,18.9,30.25,NW,304,0.0,0.0,60,0.00,,---,0.00,VWS V14.01,2014-01-18 04:44:00,
2014-01-17 22:49:00,31.0,18.4,30.25,NW,304,0.0,0.0,59,0.00,,---,0.00,VWS V14.01,2014-01-18 04:49:00,
2014-01-17 22:54:00,31.0,19.5,30.25,NW,304,0.0,0.0,62,0.00,,---,0.00,VWS V14.01,2014-01-18 04:54:00,
2014-01-17 22:59:00,30.8,19.0,30.25,NW,304,0.0,0.0,61,0.00,,---,0.00,VWS V14.01,2014-01-18 04:59:00,
2014-01-17 23:01:00,30.8,19.3,30.25,NW,304,0.0,0.0,62,0.00,,---,0.00,VWS V14.01,2014-01-18 05:01:00,
2014-01-17 23:03:00,30.8,19.3,30.25,NW,304,0.0,0.0,62,0.00,,---,0.00,VWS V14.01,2014-01-18 05:03:00,
2014-01-17 23:08:00,30.6,19.1,30.25,NW,304,0.0,0.0,62,0.00,,---,0.00,VWS V14.01,2014-01-18 05:08:00,
2014-01-17 23:13:00,30.5,19.4,30.25,NW,304,0.0,0.0,63,0.00,,---,0.00,VWS V14.01,2014-01-18 05:13:00,
2014-01-17 23:18:00,30.3,19.6,30.25,NW,304,0.0,0.0,64,0.00,,---,0.00,VWS V14.01,2014-01-18 05:18:00,
2014-01-17 23:23:00,30.2,19.9,30.25,NW,304,0.0,0.0,65,0.00,,---,0.00,VWS V14.01,2014-01-18 05:23:00,
2014-01-17 23:28:00,30.2,20.2,30.25,NW,304,0.0,0.0,66,0.00,,---,0.00,VWS V14.01,2014-01-18 05:28:00,
2014-01-17 23:33:00,29.9,19.9,30.25,NW,304,0.0,0.0,66,0.00,,---,0.00,VWS V14.01,2014-01-18 05:33:00,
2014-01-17 23:38:00,30.0,20.4,30.25,NW,304,0.0,0.0,67,0.00,,---,0.00,VWS V14.01,2014-01-18 05:38:00,
2014-01-17 23:43:00,29.8,19.8,30.25,NW,304,0.0,0.0,66,0.00,,---,0.00,VWS V14.01,2014-01-18 05:43:00,
2014-01-17 23:48:00,29.4,19.5,30.25,NW,304,0.0,0.0,66,0.00,,---,0.00,VWS V14.01,2014-01-18 05:48:00,
2014-01-17 23:53:00,29.4,19.1,30.25,NW,304,0.0,0.0,65,0.00,,---,0.00,VWS V14.01,2014-01-18 05:53:00,
2014-01-17 23:58:00,29.3,19.0,30.25,NW,304,0.0,0.0,65,0.00,,---,0.00,VWS V14.01,2014-01-18 05:58:00,